Cross City, FL

3:10 AM EST on December 08, 2019 (GMT -0500)
Cross City

Weather History for KCTY - October, 2019

Change the Weather History Date:

Sunday, October 27, 2019

  Actual Average Record
Temperature  
Mean Temperature 76 °F 67 °F  
Max Temperature 82 °F 81 °F 89 °F (2010)
Min Temperature 69 °F 54 °F 37 °F (2001)
Degree Days  
Heating Degree Days 0    
Month to date heating degree days 4  
Since 1 July heating degree days 4  
Cooling Degree Days 11    
Month to date cooling degree days 284  
Year to date cooling degree days 3041  
Growing Degree Days 26 (Base 50)    
Moisture  
Dew Point 74 °F    
Average Humidity 92    
Maximum Humidity 100    
Minimum Humidity 72    
Precipitation  
Precipitation 0.59 in 0.09 in 1.58 in (2006)
Month to date precipitation 2.54 3.04  
Year to date precipitation 50.01 42.87  
Sea Level Pressure  
Sea Level Pressure 29.96 in    
Wind  
Wind Speed 5 mph (SW)    
Max Wind Speed 8 mph    
Max Gust Speed 22 mph    
Visibility 8 miles    
Events Rain , Thunderstorm    
T = Trace of Precipitation, MM = Missing Value Source: NWS Daily Summary

Daily Weather History Graph

Daily Weather History Graph

Search for Another Location

Airport or City:

Astronomy

Oct. 27, 2019 Rise Set
Actual Time 7:41 AM EDT 6:50 PM EDT
Civil Twilight 7:17 AM EDT 7:14 PM EDT
Nautical Twilight 6:49 AM EDT 7:42 PM EDT
Astronomical Twilight 6:21 AM EDT 8:10 PM EDT
Moon 6:57 AM EDT (10/27) 6:53 PM EDT (10/27)
Length of Visible Light 11h 57m
Length of Day
11h 08m
Waning Crescent, 0% of the Moon is Illuminated
Oct 27
Waning Crescent
Oct 27
New
Nov 4
First Quarter
Nov 12
Full
Nov 19
Last Quarter

Hourly Weather History & Observations

Time (EDT) Temp. Heat Index Dew Point Humidity Pressure Visibility Wind Dir Wind Speed Gust Speed Precip Events Conditions
12:15 AM 75.7 °F - 75.2 °F 98% 29.92 in 5.0 mi SSE 5.8 mph - N/A   Mist
12:35 AM 75.9 °F - 75.4 °F 98% 29.92 in 5.0 mi SSE 5.8 mph - N/A   Mist
12:55 AM 76.1 °F - 75.7 °F 99% 29.92 in 5.0 mi South 5.8 mph - N/A   Mist
1:15 AM 76.3 °F - 75.7 °F 98% 29.91 in 5.0 mi South 6.9 mph - N/A   Mist
1:35 AM 76.3 °F - 75.9 °F 99% 29.91 in 5.0 mi SSE 5.8 mph - N/A   Mist
1:55 AM 76.3 °F - 75.7 °F 98% 29.91 in 5.0 mi SSE 5.8 mph - N/A   Mist
2:15 AM 76.5 °F - 75.9 °F 98% 29.90 in 5.0 mi South 6.9 mph - N/A   Mist
2:35 AM 76.6 °F - 76.1 °F 98% 29.90 in 5.0 mi SSE 5.8 mph - N/A   Mist
2:55 AM 76.6 °F - 75.9 °F 98% 29.89 in 5.0 mi South 5.8 mph - N/A Thunderstorm Mist
3:15 AM 76.6 °F - 75.9 °F 98% 29.89 in 5.0 mi SSE 5.8 mph - N/A   Mist
3:35 AM 76.6 °F - 75.9 °F 98% 29.89 in 5.0 mi South 5.8 mph - N/A   Mist
3:55 AM 76.8 °F - 76.1 °F 98% 29.89 in 7.0 mi South 6.9 mph - N/A   Mist
4:15 AM 77.2 °F - 76.3 °F 97% 29.89 in 7.0 mi South 6.9 mph - N/A   Mist
4:35 AM 77.4 °F - 76.3 °F 96% 29.89 in 7.0 mi South 5.8 mph - N/A   Unknown
4:55 AM 77.4 °F - 76.3 °F 96% 29.89 in 7.0 mi South 6.9 mph - N/A Thunderstorm Mist
5:15 AM 77.5 °F - 76.6 °F 97% 29.89 in 5.0 mi South 8.1 mph - N/A Thunderstorm Mist
5:35 AM 77.7 °F - 76.6 °F 96% 29.89 in 5.0 mi South 6.9 mph - N/A Thunderstorm Mist
5:55 AM 77.9 °F - 76.6 °F 96% 29.90 in 7.0 mi South 6.9 mph - N/A Thunderstorm Mist
6:15 AM 78.1 °F - 76.6 °F 95% 29.90 in 5.0 mi South 8.1 mph - N/A Thunderstorm Mist
6:35 AM 78.1 °F - 76.8 °F 96% 29.90 in 5.0 mi South 6.9 mph - N/A   Mist
6:55 AM 78.3 °F - 76.8 °F 95% 29.91 in 5.0 mi South 4.6 mph - N/A Thunderstorm Mist
7:15 AM 78.3 °F - 77.0 °F 96% 29.92 in 5.0 mi SW 9.2 mph - N/A Rain , Thunderstorm Light Thunderstorms and Rain
7:35 AM 78.3 °F - 76.8 °F 95% 29.92 in 5.0 mi South 8.1 mph - N/A Thunderstorm Unknown
7:55 AM 78.4 °F - 77.2 °F 96% 29.93 in 7.0 mi SSW 6.9 mph - N/A Rain , Thunderstorm Light Thunderstorms and Rain
8:15 AM 76.3 °F - 74.7 °F 95% 29.94 in 1.0 mi West 11.5 mph 21.9 mph 0.39 in Rain , Thunderstorm Heavy Thunderstorms and Rain
8:35 AM 75.6 °F - 74.7 °F 97% 29.94 in 7.0 mi SSW 5.8 mph - 0.56 in Rain , Thunderstorm Thunderstorms and Rain
8:55 AM 75.7 °F - 75.0 °F 98% 29.95 in 7.0 mi WSW 3.5 mph - 0.57 in Thunderstorm Thunderstorm
9:15 AM 75.4 °F - 74.5 °F 97% 29.97 in 4.0 mi WNW 4.6 mph - 0.01 in Rain , Thunderstorm Light Thunderstorms and Rain
9:35 AM 75.4 °F - 74.5 °F 97% 29.99 in 5.0 mi Calm Calm - 0.01 in Rain , Thunderstorm Light Thunderstorms and Rain
9:55 AM 75.2 °F - 74.3 °F 97% 29.99 in 7.0 mi NW 3.5 mph - 0.01 in Rain , Thunderstorm Light Thunderstorms and Rain
10:15 AM 75.2 °F - 74.5 °F 98% 29.99 in - WNW 3.5 mph - N/A Thunderstorm Thunderstorm
10:35 AM 75.2 °F - 75.2 °F 100% 29.99 in 7.0 mi NW 4.6 mph - 0.01 in Rain , Thunderstorm Rain
10:55 AM 75.4 °F - 74.3 °F 96% 30.00 in 10.0 mi NW 4.6 mph - 0.01 in Thunderstorm Thunderstorm
11:15 AM 75.4 °F - 74.1 °F 96% 30.01 in 10.0 mi WNW 4.6 mph - N/A   Unknown
11:35 AM 75.6 °F - 74.1 °F 95% 30.01 in 5.0 mi Calm Calm - N/A Rain Light Rain
11:55 AM 75.9 °F - 74.3 °F 95% 30.00 in 7.0 mi West 4.6 mph - N/A   Mist
12:15 PM 76.1 °F - 74.7 °F 95% 30.01 in 10.0 mi West 5.8 mph - N/A   Unknown
12:35 PM 76.8 °F - 74.7 °F 93% 30.01 in 10.0 mi South 3.5 mph - N/A   Unknown
12:55 PM 77.5 °F - 74.3 °F 90% 30.00 in 10.0 mi WSW 5.8 mph - N/A   Unknown
1:15 PM 77.9 °F - 74.8 °F 90% 29.99 in 10.0 mi WSW 5.8 mph - N/A   Unknown
1:35 PM 78.1 °F - 74.5 °F 89% 29.99 in 10.0 mi WSW 5.8 mph - N/A   Unknown
1:55 PM 79.0 °F - 74.8 °F 87% 29.98 in 10.0 mi WSW 5.8 mph - N/A   Unknown
2:15 PM 80.2 °F 85.8 °F 75.9 °F 87% 29.97 in 10.0 mi SSW 4.6 mph - N/A   Unknown
2:35 PM 80.8 °F 86.5 °F 75.0 °F 83% 29.96 in 10.0 mi WSW 5.8 mph - N/A   Unknown
3:15 PM 81.7 °F 86.9 °F 73.2 °F 75% 29.96 in - SW 5.8 mph - N/A   Unknown
3:35 PM 82.4 °F 87.9 °F 73.0 °F 73% 29.95 in 10.0 mi West 5.8 mph - N/A   Unknown
3:55 PM 81.1 °F 85.6 °F 72.3 °F 74% 29.96 in 10.0 mi West 8.1 mph - N/A   Unknown
4:15 PM 80.1 °F 83.7 °F 71.6 °F 75% 29.96 in 10.0 mi West 9.2 mph - N/A   Unknown
4:35 PM 80.8 °F 84.6 °F 70.9 °F 72% 29.96 in 10.0 mi West 8.1 mph - N/A   Unknown
4:55 PM 80.1 °F 83.4 °F 70.9 °F 73% 29.96 in 10.0 mi West 8.1 mph - N/A   Unknown
5:15 PM 79.5 °F - 70.9 °F 75% 29.96 in 10.0 mi West 6.9 mph - N/A   Unknown
5:35 PM 80.2 °F 83.7 °F 70.7 °F 73% 29.96 in 10.0 mi WSW 6.9 mph - N/A   Unknown
5:55 PM 79.9 °F - 70.7 °F 73% 29.96 in 10.0 mi West 8.1 mph - N/A   Unknown
6:15 PM 79.0 °F - 70.7 °F 76% 29.96 in 10.0 mi WSW 5.8 mph - N/A   Unknown
6:35 PM 77.9 °F - 70.9 °F 79% 29.97 in 10.0 mi WSW 3.5 mph - N/A   Unknown
6:55 PM 76.6 °F - 71.2 °F 83% 29.97 in 10.0 mi SW 3.5 mph - N/A   Unknown
7:15 PM 75.4 °F - 70.7 °F 85% 29.97 in 10.0 mi West 5.8 mph - N/A   Unknown
7:35 PM 74.5 °F - 70.5 °F 87% 29.98 in 10.0 mi West 4.6 mph - N/A   Unknown
7:55 PM 73.6 °F - 70.3 °F 90% 29.98 in 10.0 mi WSW 4.6 mph - N/A   Unknown
8:15 PM 73.4 °F - 70.3 °F 90% 29.98 in 10.0 mi WNW 3.5 mph - N/A   Unknown
8:35 PM 72.5 °F - 70.3 °F 93% 29.99 in 10.0 mi West 4.6 mph - N/A   Unknown
8:55 PM 72.7 °F - 70.2 °F 92% 29.99 in 10.0 mi Calm Calm - N/A   Unknown
9:15 PM 72.3 °F - 70.3 °F 93% 30.00 in 10.0 mi SSW 3.5 mph - N/A   Unknown
9:35 PM 72.1 °F - 70.3 °F 94% 30.01 in 7.0 mi South 3.5 mph - N/A   Unknown
9:55 PM 72.1 °F - 70.3 °F 94% 30.01 in 10.0 mi Calm Calm - N/A   Unknown
10:15 PM 71.8 °F - 70.2 °F 95% 30.01 in 10.0 mi Calm Calm - N/A   Unknown
10:35 PM 70.9 °F - 69.6 °F 96% 30.01 in 10.0 mi Calm Calm - N/A   Unknown
10:55 PM 71.2 °F - 69.8 °F 95% 30.01 in 10.0 mi Calm Calm - N/A   Unknown
11:15 PM 70.5 °F - 69.6 °F 97% 30.02 in 10.0 mi Calm Calm - N/A   Unknown
11:35 PM 70.5 °F - 69.4 °F 96% 30.02 in 10.0 mi Calm Calm - N/A   Unknown
11:55 PM 69.6 °F - 68.7 °F 97% 30.01 in 10.0 mi Calm Calm - N/A   Unknown